Retour au catalogue

STARLINK-31648

ActifCommunicationsVLEO
NORAD 59266·PAYLOAD·🇺🇸 United States

Lancé Mar 19, 2024 depuis Vandenberg Space Force Base

Loading…

Prochains Passages (prochaines 24 heures)

TLE

FraisSource: CelesTrak SupGP

Époque: Sep 15, 2026, 02:18 UTC

1 59266C 24050N   26258.09631944  .00022644  00000+0  66903-3 0  2580
2 59266  53.1615  20.6574 0001154  80.0231 347.9804 15.34379387    16

Suivez STARLINK-31648 en temps réel avec AllMySat

Download on the App Store